Overview Statistics Trail Chart Weather Telemetry Raw packets
 

This is the latest recevied weather packets stored in our database for station/object NC4M. If no packets are shown the sender has not sent any weather packets the latest 10 day(s).

<< 5 6 7 8 9 10 11 >>
Time Temp. Humidity Pressure Rain* Wind** Luminosity Snow
1788529824 27.78° C 70% 1017.4 hPa 0 mm - 53 W/m² -
1788529519 27.22° C 72% 1017.4 hPa 0 mm - 39 W/m² -
1788529213 26.67° C 74% 1017.4 hPa 0 mm - 38 W/m² -
1788528908 26.67° C 77% 1017.4 hPa 0 mm - 44 W/m² -
1788528604 26.11° C 77% 1017.1 hPa 0 mm - 35 W/m² -
1788528304 25.56° C 79% 1017.1 hPa 0 mm - 47 W/m² -
1788528004 25° C 80% 1017.3 hPa 0 mm - 33 W/m² -
1788527698 25° C 83% 1017.1 hPa 0 mm - 32 W/m² -
1788527394 24.44° C 83% 1017 hPa 0 mm - 31 W/m² -
1788527093 23.89° C 84% 1017.1 hPa 0 mm - 30 W/m² -
1788526788 23.89° C 85% 1017.3 hPa 0 mm - 28 W/m² -
1788526484 23.33° C 86% 1017.1 hPa 0 mm - 27 W/m² -
1788526184 23.33° C 87% 1017.3 hPa 0 mm - 26 W/m² -
1788525880 22.78° C 87% 1017 hPa 0 mm - 25 W/m² -
1788525576 22.78° C 88% 1017.1 hPa 0 mm - 23 W/m² -
1788525276 22.78° C 88% 1017.1 hPa 0 mm - 22 W/m² -
1788524997 22.78° C 89% 1017.1 hPa 0 mm - 21 W/m² -
1788524671 22.22° C 90% 1017 hPa 0 mm - 19 W/m² -
1788524366 22.22° C 91% 1017.1 hPa 0 mm - 17 W/m² -
1788524062 22.22° C 91% 1016.8 hPa 0 mm - 16 W/m² -
1788523759 21.67° C 91% 1016.8 hPa 0 mm - 14 W/m² -
1788523454 21.67° C 92% 1016.7 hPa 0 mm - 12 W/m² -
1788523149 21.67° C 91% 1016.8 hPa 0 mm - 9 W/m² -
1788522844 21.67° C 91% 1016.6 hPa 0 mm - 8 W/m² -
1788522539 21.67° C 91% 1016.6 hPa 0 mm - 5 W/m² -

* Rain latest hour (hover to see other rain measurements)
** Current wind speed in m/s (hover to see current wind gust speed)